,,,PA_Meas_PMT16A,,PR_Meas_QMR101_102,,RH_Meas_QMH101,,SR_Meas_QMS101,,TA_Meas_QMH101,,GenWind,,GenWind,
date,time,status,PA,status,PR,status,RH,status,SR,status,TA,status,DirAvg,status,SpdAvg,
2008-11-23, 00:00:04,VALID,1002.67,VALID,0,VALID,93.469,VALID,0,VALID,24.6983,VALID,68,VALID,0,
2008-11-23, 00:01:04,VALID,1002.68,VALID,0,VALID,93.4538,VALID,0,VALID,24.6983,VALID,67,VALID,0.326953,
2008-11-23, 00:02:04,VALID,1002.68,VALID,0,VALID,93.4919,VALID,0,VALID,24.6964,VALID,67,VALID,0.0792969,
2008-11-23, 00:03:04,VALID,1002.67,VALID,0,VALID,93.5072,VALID,0,VALID,24.6983,VALID,67,VALID,0.222656,
2008-11-23, 00:04:04,VALID,1002.68,VALID,0,VALID,93.5072,VALID,0,VALID,24.6964,VALID,66,VALID,0.403516,
2008-11-23, 00:05:04,VALID,1002.7,VALID,0,VALID,93.553,VALID,0,VALID,24.6769,VALID,18,VALID,0.551562,
2008-11-23, 00:06:04,VALID,1002.67,VALID,0,VALID,93.5682,VALID,0,VALID,24.6769,VALID,353,VALID,0.525,
2008-11-23, 00:07:04,VALID,1002.66,VALID,0,VALID,93.5606,VALID,0,VALID,24.6788,VALID,351,VALID,0.680078,
2008-11-23, 00:08:04,VALID,1002.66,VALID,0,VALID,93.614,VALID,0,VALID,24.638,VALID,353,VALID,0.570313,
2008-11-23, 00:09:04,VALID,1002.67,VALID,0,VALID,93.6979,VALID,0,VALID,24.638,VALID,349,VALID,0.768359,
2008-11-23, 00:10:04,VALID,1002.66,VALID,0,VALID,93.7895,VALID,0,VALID,24.6593,VALID,356,VALID,0.89375,
2008-11-23, 00:11:04,VALID,1002.64,VALID,0,VALID,93.8352,VALID,0,VALID,24.6593,VALID,356,VALID,0.510547,
2008-11-23, 00:12:04,VALID,1002.63,VALID,0,VALID,93.9039,VALID,0,VALID,24.6574,VALID,353,VALID,0.512109,
2008-11-23, 00:13:04,VALID,1002.63,VALID,0,VALID,93.9573,VALID,0,VALID,24.6574,VALID,356,VALID,0.449219,
2008-11-23, 00:14:04,VALID,1002.63,VALID,0,VALID,93.9802,VALID,0,VALID,24.6769,VALID,353,VALID,0.560938,
2008-11-23, 00:15:04,VALID,1002.59,VALID,0,VALID,93.9725,VALID,0,VALID,24.6788,VALID,351,VALID,0.707812,
2008-11-23, 00:16:04,VALID,1002.62,VALID,0,VALID,93.9725,VALID,0,VALID,24.6769,VALID,351,VALID,0.617969,
2008-11-23, 00:17:04,VALID,1002.6,VALID,0,VALID,93.9725,VALID,0,VALID,24.6964,VALID,351,VALID,0.26875,
2008-11-23, 00:18:04,VALID,1002.6,VALID,0,VALID,93.942,VALID,0,VALID,24.6983,VALID,351,VALID,0.319531,
2008-11-23, 00:19:04,VALID,1002.58,VALID,0,VALID,93.9115,VALID,0,VALID,24.6769,VALID,351,VALID,0.0304688,
2008-11-23, 00:20:04,VALID,1002.56,VALID,0,VALID,93.8657,VALID,0,VALID,24.6983,VALID,351,VALID,0,
2008-11-23, 00:21:04,VALID,1002.56,VALID,0,VALID,93.8963,VALID,0,VALID,24.6574,VALID,351,VALID,0,
2008-11-23, 00:22:04,VALID,1002.55,VALID,0,VALID,93.942,VALID,0,VALID,24.6769,VALID,351,VALID,0,
2008-11-23, 00:23:04,VALID,1002.56,VALID,0,VALID,93.8276,VALID,0,VALID,24.6769,VALID,351,VALID,0,
2008-11-23, 00:24:04,VALID,1002.54,VALID,0,VALID,93.8047,VALID,0,VALID,24.6593,VALID,350,VALID,0.309375,
2008-11-23, 00:25:04,VALID,1002.52,VALID,0,VALID,93.7589,VALID,0,VALID,24.6185,VALID,350,VALID,0.441016,
2008-11-23, 00:26:04,VALID,1002.51,VALID,0,VALID,93.8352,VALID,0,VALID,24.6398,VALID,350,VALID,0.404687,
2008-11-23, 00:27:04,VALID,1002.51,VALID,0,VALID,93.8581,VALID,0,VALID,24.6185,VALID,350,VALID,0.508203,
2008-11-23, 00:28:04,VALID,1002.51,VALID,0,VALID,93.8734,VALID,0,VALID,24.599,VALID,350,VALID,0.404687,
2008-11-23, 00:29:04,VALID,1002.49,VALID,0,VALID,93.9115,VALID,0,VALID,24.599,VALID,350,VALID,0.309375,
2008-11-23, 00:30:04,VALID,1002.51,VALID,0,VALID,93.9344,VALID,0,VALID,24.5796,VALID,350,VALID,0.0121094,
2008-11-23, 00:31:04,VALID,1002.47,VALID,0,VALID,93.942,VALID,0,VALID,24.5796,VALID,350,VALID,0,
2008-11-23, 00:32:04,VALID,1002.48,VALID,0,VALID,93.9344,VALID,0,VALID,24.5796,VALID,350,VALID,0,
2008-11-23, 00:33:04,VALID,1002.48,VALID,0,VALID,93.9802,VALID,0,VALID,24.5601,VALID,350,VALID,0,
2008-11-23, 00:34:04,VALID,1002.46,VALID,0,VALID,94.0259,VALID,0,VALID,24.5406,VALID,350,VALID,0,
2008-11-23, 00:35:04,VALID,1002.44,VALID,0,VALID,94.0031,VALID,0,VALID,24.5212,VALID,350,VALID,0,
2008-11-23, 00:36:04,VALID,1002.43,VALID,0,VALID,94.0717,VALID,0,VALID,24.5017,VALID,350,VALID,0,
2008-11-23, 00:37:04,VALID,1002.46,VALID,0,VALID,94.0946,VALID,0,VALID,24.4822,VALID,350,VALID,0,
2008-11-23, 00:38:04,VALID,1002.44,VALID,0,VALID,94.0946,VALID,0,VALID,24.4822,VALID,350,VALID,0,
2008-11-23, 00:39:04,VALID,1002.47,VALID,0,VALID,94.148,VALID,0,VALID,24.523,VALID,350,VALID,0,
2008-11-23, 00:40:04,VALID,1002.47,VALID,0,VALID,94.1175,VALID,0,VALID,24.4628,VALID,350,VALID,0,
2008-11-23, 00:41:04,VALID,1002.46,VALID,0,VALID,94.1022,VALID,0,VALID,24.4433,VALID,350,VALID,0,
2008-11-23, 00:42:04,VALID,1002.46,VALID,0,VALID,94.0946,VALID,0,VALID,24.4433,VALID,350,VALID,0,
2008-11-23, 00:43:04,VALID,1002.45,VALID,0,VALID,94.1328,VALID,0,VALID,24.4433,VALID,350,VALID,0,
2008-11-23, 00:44:04,VALID,1002.43,VALID,0,VALID,94.1862,VALID,0.100563,VALID,24.4433,VALID,350,VALID,0,
2008-11-23, 00:45:04,VALID,1002.4,VALID,0,VALID,94.2243,VALID,0,VALID,24.4628,VALID,350,VALID,0,
2008-11-23, 00:46:04,VALID,1002.39,VALID,0,VALID,94.2624,VALID,0.100563,VALID,24.4433,VALID,350,VALID,0,
2008-11-23, 00:47:04,VALID,1002.38,VALID,0,VALID,94.2853,VALID,0,VALID,24.4414,VALID,350,VALID,0,
2008-11-23, 00:48:04,VALID,1002.39,VALID,0,VALID,94.3082,VALID,0,VALID,24.4433,VALID,350,VALID,0,
2008-11-23, 00:49:04,VALID,1002.35,VALID,0,VALID,94.3235,VALID,0,VALID,24.4628,VALID,350,VALID,0,
2008-11-23, 00:50:04,VALID,1002.33,VALID,0,VALID,94.2853,VALID,0,VALID,24.4433,VALID,350,VALID,0,
2008-11-23, 00:51:04,VALID,1002.3,VALID,0,VALID,94.2014,VALID,0,VALID,24.4238,VALID,350,VALID,0,
2008-11-23, 00:52:04,VALID,1002.3,VALID,0,VALID,94.1862,VALID,0,VALID,24.4043,VALID,350,VALID,0,
2008-11-23, 00:53:04,VALID,1002.29,VALID,0,VALID,94.2243,VALID,0,VALID,24.4062,VALID,350,VALID,0,
2008-11-23, 00:54:04,VALID,1002.29,VALID,0,VALID,94.3082,VALID,0,VALID,24.3849,VALID,350,VALID,0,
2008-11-23, 00:55:04,VALID,1002.27,VALID,0,VALID,94.3387,VALID,0,VALID,24.4062,VALID,350,VALID,0,
2008-11-23, 00:56:04,VALID,1002.24,VALID,0,VALID,94.3845,VALID,0,VALID,24.4043,VALID,350,VALID,0,
2008-11-23, 00:57:04,VALID,1002.24,VALID,0,VALID,94.3692,VALID,0,VALID,24.4043,VALID,350,VALID,0,
2008-11-23, 00:58:04,VALID,1002.23,VALID,0,VALID,94.3616,VALID,0,VALID,24.4043,VALID,350,VALID,0,
2008-11-23, 00:59:04,VALID,1002.23,VALID,0,VALID,94.3769,VALID,0,VALID,24.4043,VALID,350,VALID,0,
2008-11-23, 01:00:04,VALID,1002.18,VALID,0,VALID,94.354,VALID,0,VALID,24.4043,VALID,350,VALID,0,
2008-11-23, 01:01:04,VALID,1002.17,VALID,0,VALID,94.3845,VALID,0,VALID,24.4043,VALID,350,VALID,0,
2008-11-23, 01:02:04,VALID,1002.17,VALID,0,VALID,94.4074,VALID,0,VALID,24.4043,VALID,350,VALID,0,
2008-11-23, 01:03:04,VALID,1002.14,VALID,0,VALID,94.3692,VALID,0,VALID,24.4043,VALID,350,VALID,0,
2008-11-23, 01:04:04,VALID,1002.16,VALID,0,VALID,94.3464,VALID,0,VALID,24.3849,VALID,350,VALID,0,
2008-11-23, 01:05:04,VALID,1002.12,VALID,0,VALID,94.3006,VALID,0,VALID,24.3849,VALID,350,VALID,0,
2008-11-23, 01:06:04,VALID,1002.13,VALID,0,VALID,94.3311,VALID,0,VALID,24.3654,VALID,350,VALID,0,
2008-11-23, 01:07:04,VALID,1002.12,VALID,0,VALID,94.3387,VALID,0,VALID,24.3849,VALID,350,VALID,0,
2008-11-23, 01:08:04,VALID,1002.11,VALID,0,VALID,94.3692,VALID,0,VALID,24.3654,VALID,350,VALID,0,
2008-11-23, 01:09:04,VALID,1002.09,VALID,0,VALID,94.4379,VALID,0,VALID,24.3654,VALID,350,VALID,0,
2008-11-23, 01:10:04,VALID,1002.06,VALID,0,VALID,94.3998,VALID,0.100563,VALID,24.3459,VALID,350,VALID,0,
2008-11-23, 01:11:04,VALID,1002.04,VALID,0,VALID,94.415,VALID,0,VALID,24.3654,VALID,350,VALID,0,
2008-11-23, 01:12:04,VALID,1002.01,VALID,0,VALID,94.4761,VALID,0,VALID,24.3673,VALID,350,VALID,0,
2008-11-23, 01:13:04,VALID,1001.96,VALID,0,VALID,94.4989,VALID,0,VALID,24.3849,VALID,350,VALID,0,
2008-11-23, 01:14:04,VALID,1001.93,VALID,0,VALID,94.5142,VALID,0,VALID,24.3636,VALID,350,VALID,0,
2008-11-23, 01:15:04,VALID,1001.92,VALID,0,VALID,94.5066,VALID,0,VALID,24.3849,VALID,350,VALID,0,
2008-11-23, 01:16:04,VALID,1001.94,VALID,0,VALID,94.4913,VALID,0,VALID,24.3849,VALID,350,VALID,0,
2008-11-23, 01:17:04,VALID,1001.95,VALID,0,VALID,94.5142,VALID,0,VALID,24.4043,VALID,350,VALID,0,
2008-11-23, 01:18:04,VALID,1001.93,VALID,0,VALID,94.4989,VALID,0.100563,VALID,24.4043,VALID,350,VALID,0,
2008-11-23, 01:19:04,VALID,1001.94,VALID,0,VALID,94.4761,VALID,0,VALID,24.4043,VALID,350,VALID,0,
2008-11-23, 01:20:04,VALID,1001.96,VALID,0,VALID,94.4761,VALID,0,VALID,24.3849,VALID,350,VALID,0,
2008-11-23, 01:21:04,VALID,1001.96,VALID,0,VALID,94.4989,VALID,0,VALID,24.4043,VALID,350,VALID,0,
2008-11-23, 01:22:04,VALID,1001.96,VALID,0,VALID,94.4989,VALID,0,VALID,24.3849,VALID,350,VALID,0,
2008-11-23, 01:23:04,VALID,1001.95,VALID,0,VALID,94.5142,VALID,0,VALID,24.3849,VALID,350,VALID,0,
2008-11-23, 01:24:04,VALID,1001.96,VALID,0,VALID,94.5676,VALID,0,VALID,24.4043,VALID,350,VALID,0,
2008-11-23, 01:25:04,VALID,1001.93,VALID,0,VALID,94.5523,VALID,0,VALID,24.4043,VALID,350,VALID,0,
2008-11-23, 01:26:04,VALID,1001.9,VALID,0,VALID,94.56,VALID,0,VALID,24.4043,VALID,350,VALID,0,
2008-11-23, 01:27:04,VALID,1001.92,VALID,0,VALID,94.5371,VALID,0.100563,VALID,24.383,VALID,350,VALID,0,
2008-11-23, 01:28:04,VALID,1001.87,VALID,0,VALID,94.621,VALID,0,VALID,24.4238,VALID,350,VALID,0,
2008-11-23, 01:29:04,VALID,1001.87,VALID,0,VALID,94.6591,VALID,0,VALID,24.4433,VALID,350,VALID,0,
2008-11-23, 01:30:04,VALID,1001.88,VALID,0,VALID,94.6668,VALID,0,VALID,24.4646,VALID,350,VALID,0,
2008-11-23, 01:31:04,VALID,1001.87,VALID,0,VALID,94.6591,VALID,0,VALID,24.422,VALID,350,VALID,0,
2008-11-23, 01:32:04,VALID,1001.86,VALID,0,VALID,94.6591,VALID,0,VALID,24.4628,VALID,350,VALID,0,
2008-11-23, 01:33:04,VALID,1001.85,VALID,0,VALID,94.6439,VALID,0,VALID,24.4628,VALID,350,VALID,0,
2008-11-23, 01:34:04,VALID,1001.86,VALID,0,VALID,94.6439,VALID,0,VALID,24.4646,VALID,350,VALID,0,
2008-11-23, 01:35:04,VALID,1001.84,VALID,0,VALID,94.6668,VALID,0,VALID,24.4433,VALID,350,VALID,0,
2008-11-23, 01:36:04,VALID,1001.84,VALID,0,VALID,94.6439,VALID,0,VALID,24.422,VALID,350,VALID,0,
2008-11-23, 01:37:04,VALID,1001.83,VALID,0,VALID,94.682,VALID,0.100563,VALID,24.4841,VALID,350,VALID,0,
2008-11-23, 01:38:04,VALID,1001.83,VALID,0,VALID,94.6973,VALID,0,VALID,24.4628,VALID,350,VALID,0,
2008-11-23, 01:39:04,VALID,1001.83,VALID,0,VALID,94.7583,VALID,0,VALID,24.4628,VALID,350,VALID,0,
2008-11-23, 01:40:04,VALID,1001.82,VALID,0,VALID,94.6897,VALID,0,VALID,24.4822,VALID,350,VALID,0,
2008-11-23, 01:41:04,VALID,1001.83,VALID,0,VALID,94.682,VALID,0,VALID,24.4822,VALID,350,VALID,0,
2008-11-23, 01:42:04,VALID,1001.82,VALID,0,VALID,94.6668,VALID,0,VALID,24.5212,VALID,350,VALID,0,
2008-11-23, 01:43:04,VALID,1001.86,VALID,0,VALID,94.766,VALID,0,VALID,24.5814,VALID,350,VALID,0,
2008-11-23, 01:44:04,VALID,1001.84,VALID,0,VALID,94.7812,VALID,0,VALID,24.5777,VALID,350,VALID,0,
2008-11-23, 01:45:04,VALID,1001.9,VALID,0,VALID,94.7888,VALID,0,VALID,24.6185,VALID,350,VALID,0,
2008-11-23, 01:46:04,VALID,1001.9,VALID,0,VALID,94.7583,VALID,0,VALID,24.6185,VALID,350,VALID,0,
2008-11-23, 01:47:04,VALID,1001.94,VALID,0,VALID,94.766,VALID,0,VALID,24.6185,VALID,350,VALID,0,
2008-11-23, 01:48:04,VALID,1001.96,VALID,0,VALID,94.7965,VALID,0,VALID,24.6574,VALID,350,VALID,0,
2008-11-23, 01:49:04,VALID,1001.95,VALID,0,VALID,94.827,VALID,0,VALID,24.6574,VALID,350,VALID,0,
2008-11-23, 01:50:04,VALID,1001.96,VALID,0,VALID,94.7965,VALID,0,VALID,24.6556,VALID,350,VALID,0,
2008-11-23, 01:51:04,VALID,1001.96,VALID,0,VALID,94.8041,VALID,0,VALID,24.6769,VALID,350,VALID,0,
2008-11-23, 01:52:04,VALID,1001.95,VALID,0,VALID,94.827,VALID,0,VALID,24.6769,VALID,350,VALID,0,
2008-11-23, 01:53:04,VALID,1001.93,VALID,0,VALID,94.8499,VALID,0,VALID,24.7159,VALID,350,VALID,0,
2008-11-23, 01:54:04,VALID,1001.93,VALID,0,VALID,94.888,VALID,0,VALID,24.7159,VALID,350,VALID,0,
2008-11-23, 01:55:04,VALID,1001.91,VALID,0,VALID,94.8194,VALID,0,VALID,24.7353,VALID,350,VALID,0,
2008-11-23, 01:56:04,VALID,1001.87,VALID,0,VALID,94.7736,VALID,0,VALID,24.7372,VALID,350,VALID,0,
2008-11-23, 01:57:04,VALID,1001.92,VALID,0,VALID,94.7583,VALID,0,VALID,24.7353,VALID,350,VALID,0,
2008-11-23, 01:58:04,VALID,1001.89,VALID,0,VALID,94.7354,VALID,0,VALID,24.7353,VALID,350,VALID,0,
2008-11-23, 01:59:04,VALID,1001.9,VALID,0,VALID,94.7202,VALID,0,VALID,24.7353,VALID,350,VALID,0,
2008-11-23, 02:00:04,VALID,1001.89,VALID,0,VALID,94.7278,VALID,0,VALID,24.7353,VALID,350,VALID,0,
2008-11-23, 02:01:04,VALID,1001.87,VALID,0,VALID,94.7354,VALID,0,VALID,24.7548,VALID,350,VALID,0,
2008-11-23, 02:02:04,VALID,1001.87,VALID,0,VALID,94.7507,VALID,0,VALID,24.7548,VALID,350,VALID,0,
2008-11-23, 02:03:04,VALID,1001.85,VALID,0,VALID,94.7125,VALID,0,VALID,24.7548,VALID,350,VALID,0,
2008-11-23, 02:04:04,VALID,1001.81,VALID,0,VALID,94.682,VALID,0,VALID,24.7548,VALID,350,VALID,0,
2008-11-23, 02:05:04,VALID,1001.83,VALID,0,VALID,94.6973,VALID,0,VALID,24.7743,VALID,350,VALID,0.178125,
2008-11-23, 02:06:04,VALID,1001.78,VALID,0,VALID,94.6897,VALID,0,VALID,24.7743,VALID,350,VALID,0.0757812,
2008-11-23, 02:07:04,VALID,1001.81,VALID,0,VALID,94.6668,VALID,0,VALID,24.7743,VALID,350,VALID,0.00273437,
2008-11-23, 02:08:04,VALID,1001.79,VALID,0,VALID,94.6973,VALID,0,VALID,24.7937,VALID,350,VALID,0.201172,
2008-11-23, 02:09:04,VALID,1001.79,VALID,0,VALID,94.7583,VALID,0,VALID,24.7937,VALID,350,VALID,0,
2008-11-23, 02:10:04,VALID,1001.78,VALID,0,VALID,94.7202,VALID,0,VALID,24.8346,VALID,350,VALID,0,
2008-11-23, 02:11:04,VALID,1001.8,VALID,0,VALID,94.682,VALID,0,VALID,24.8327,VALID,350,VALID,0,
2008-11-23, 02:12:04,VALID,1001.79,VALID,0,VALID,94.7202,VALID,0,VALID,24.8327,VALID,350,VALID,0,
2008-11-23, 02:13:04,VALID,1001.83,VALID,0,VALID,94.7125,VALID,0,VALID,24.8522,VALID,350,VALID,0,
2008-11-23, 02:14:04,VALID,1001.83,VALID,0,VALID,94.7049,VALID,0,VALID,24.8327,VALID,350,VALID,0,
2008-11-23, 02:15:04,VALID,1001.83,VALID,0,VALID,94.6973,VALID,0,VALID,24.8522,VALID,350,VALID,0,
2008-11-23, 02:16:04,VALID,1001.83,VALID,0,VALID,94.6973,VALID,0,VALID,24.8522,VALID,350,VALID,0,
2008-11-23, 02:17:04,VALID,1001.82,VALID,0,VALID,94.682,VALID,0,VALID,24.8522,VALID,351,VALID,0,
2008-11-23, 02:18:04,VALID,1001.82,VALID,0,VALID,94.6515,VALID,0,VALID,24.8522,VALID,350,VALID,0,
2008-11-23, 02:19:04,VALID,1001.82,VALID,0,VALID,94.6668,VALID,0,VALID,24.8522,VALID,350,VALID,0,
2008-11-23, 02:20:04,VALID,1001.83,VALID,0,VALID,94.6744,VALID,0,VALID,24.8522,VALID,350,VALID,0,
2008-11-23, 02:21:04,VALID,1001.79,VALID,0,VALID,94.621,VALID,0,VALID,24.8327,VALID,350,VALID,0,
2008-11-23, 02:22:04,VALID,1001.79,VALID,0,VALID,94.6286,VALID,0,VALID,24.8327,VALID,350,VALID,0.274609,
2008-11-23, 02:23:04,VALID,1001.76,VALID,0,VALID,94.6134,VALID,0,VALID,24.8327,VALID,348,VALID,0.455469,
2008-11-23, 02:24:04,VALID,1001.77,VALID,0,VALID,94.6515,VALID,0,VALID,24.8132,VALID,348,VALID,0.426172,
2008-11-23, 02:25:04,VALID,1001.77,VALID,0,VALID,94.621,VALID,0,VALID,24.8346,VALID,348,VALID,0.315625,
2008-11-23, 02:26:04,VALID,1001.76,VALID,0,VALID,94.5905,VALID,0,VALID,24.8132,VALID,348,VALID,0.16875,
2008-11-23, 02:27:04,VALID,1001.71,VALID,0,VALID,94.6286,VALID,0,VALID,24.8327,VALID,348,VALID,0,
2008-11-23, 02:28:04,VALID,1001.68,VALID,0,VALID,94.5981,VALID,0,VALID,24.8132,VALID,348,VALID,0,
2008-11-23, 02:29:04,VALID,1001.71,VALID,0,VALID,94.5981,VALID,0,VALID,24.8346,VALID,348,VALID,0,
2008-11-23, 02:30:04,VALID,1001.73,VALID,0,VALID,94.6286,VALID,0,VALID,24.8346,VALID,348,VALID,0,
2008-11-23, 02:31:04,VALID,1001.71,VALID,0,VALID,94.6134,VALID,0,VALID,24.8327,VALID,348,VALID,0,
2008-11-23, 02:32:04,VALID,1001.71,VALID,0,VALID,94.5829,VALID,0,VALID,24.8327,VALID,348,VALID,0,
2008-11-23, 02:33:04,VALID,1001.68,VALID,0,VALID,94.6134,VALID,0,VALID,24.8346,VALID,348,VALID,0,
2008-11-23, 02:34:04,VALID,1001.68,VALID,0,VALID,94.6057,VALID,0,VALID,24.8327,VALID,348,VALID,0,
2008-11-23, 02:35:04,VALID,1001.68,VALID,0,VALID,94.6057,VALID,0,VALID,24.8132,VALID,348,VALID,0,
2008-11-23, 02:36:04,VALID,1001.64,VALID,0,VALID,94.6439,VALID,0,VALID,24.8346,VALID,348,VALID,0,
2008-11-23, 02:37:04,VALID,1001.66,VALID,0,VALID,94.6057,VALID,0,VALID,24.8132,VALID,348,VALID,0.312109,
2008-11-23, 02:38:04,VALID,1001.61,VALID,0,VALID,94.5905,VALID,0,VALID,24.8346,VALID,348,VALID,0.327344,
2008-11-23, 02:39:04,VALID,1001.61,VALID,0,VALID,94.6591,VALID,0,VALID,24.7937,VALID,348,VALID,0.243359,
2008-11-23, 02:40:04,VALID,1001.6,VALID,0,VALID,94.6439,VALID,0,VALID,24.8132,VALID,348,VALID,0.350781,
2008-11-23, 02:41:04,VALID,1001.58,VALID,0,VALID,94.6515,VALID,0,VALID,24.8132,VALID,348,VALID,0.467187,
2008-11-23, 02:42:04,VALID,1001.57,VALID,0,VALID,94.6591,VALID,0,VALID,24.854,VALID,348,VALID,0.383594,
2008-11-23, 02:43:04,VALID,1001.56,VALID,0,VALID,94.6744,VALID,0,VALID,24.8327,VALID,348,VALID,0.00117188,
2008-11-23, 02:44:04,VALID,1001.58,VALID,0,VALID,94.6897,VALID,0,VALID,24.8522,VALID,348,VALID,0.298438,
2008-11-23, 02:45:04,VALID,1001.57,VALID,0,VALID,94.682,VALID,0,VALID,24.8522,VALID,348,VALID,0.140234,
2008-11-23, 02:46:04,VALID,1001.55,VALID,0,VALID,94.682,VALID,0,VALID,24.8522,VALID,348,VALID,0,
2008-11-23, 02:47:04,VALID,1001.58,VALID,0,VALID,94.6744,VALID,0,VALID,24.8522,VALID,348,VALID,0,
2008-11-23, 02:48:04,VALID,1001.56,VALID,0,VALID,94.6744,VALID,0,VALID,24.8522,VALID,348,VALID,0,
2008-11-23, 02:49:04,VALID,1001.54,VALID,0,VALID,94.6668,VALID,0,VALID,24.893,VALID,348,VALID,0,
2008-11-23, 02:50:04,VALID,1001.53,VALID,0,VALID,94.6439,VALID,0,VALID,24.8522,VALID,348,VALID,0,
2008-11-23, 02:51:04,VALID,1001.48,VALID,0,VALID,94.621,VALID,0,VALID,24.8735,VALID,348,VALID,0,
2008-11-23, 02:52:04,VALID,1001.47,VALID,0,VALID,94.6134,VALID,0,VALID,24.8327,VALID,348,VALID,0,
2008-11-23, 02:53:04,VALID,1001.43,VALID,0,VALID,94.6134,VALID,0,VALID,24.8327,VALID,348,VALID,0.121094,
2008-11-23, 02:54:04,VALID,1001.42,VALID,0,VALID,94.6363,VALID,0,VALID,24.8327,VALID,348,VALID,0.245703,
2008-11-23, 02:55:04,VALID,1001.43,VALID,0,VALID,94.6515,VALID,0,VALID,24.8132,VALID,348,VALID,0,
2008-11-23, 02:56:04,VALID,1001.43,VALID,0,VALID,94.6591,VALID,0,VALID,24.8327,VALID,348,VALID,0,
2008-11-23, 02:57:04,VALID,1001.43,VALID,0,VALID,94.7049,VALID,0,VALID,24.8327,VALID,348,VALID,0,
2008-11-23, 02:58:04,VALID,1001.4,VALID,0,VALID,94.6973,VALID,0,VALID,24.8327,VALID,348,VALID,0.277344,
2008-11-23, 02:59:04,VALID,1001.41,VALID,0,VALID,94.7125,VALID,0,VALID,24.8522,VALID,349,VALID,0.495313,
2008-11-23, 03:00:04,VALID,1001.4,VALID,0,VALID,94.7125,VALID,0,VALID,24.8716,VALID,349,VALID,0.332422,
2008-11-23, 03:01:04,VALID,1001.39,VALID,0,VALID,94.6973,VALID,0,VALID,24.8522,VALID,349,VALID,0,
2008-11-23, 03:02:04,VALID,1001.42,VALID,0,VALID,94.6973,VALID,0,VALID,24.8522,VALID,349,VALID,0,
2008-11-23, 03:03:04,VALID,1001.38,VALID,0,VALID,94.6897,VALID,0,VALID,24.8522,VALID,349,VALID,0,
2008-11-23, 03:04:04,VALID,1001.37,VALID,0,VALID,94.6668,VALID,0,VALID,24.8522,VALID,349,VALID,0,
2008-11-23, 03:05:04,VALID,1001.37,VALID,0,VALID,94.6591,VALID,0,VALID,24.8327,VALID,349,VALID,0,
2008-11-23, 03:06:04,VALID,1001.35,VALID,0,VALID,94.6363,VALID,0,VALID,24.8327,VALID,349,VALID,0,
2008-11-23, 03:07:04,VALID,1001.36,VALID,0,VALID,94.6134,VALID,0,VALID,24.8132,VALID,349,VALID,0,
2008-11-23, 03:08:04,VALID,1001.33,VALID,0,VALID,94.5905,VALID,0,VALID,24.7937,VALID,349,VALID,0.00234375,
2008-11-23, 03:09:04,VALID,1001.33,VALID,0,VALID,94.6439,VALID,0,VALID,24.7937,VALID,351,VALID,0.498047,
2008-11-23, 03:10:04,VALID,1001.31,VALID,0,VALID,94.6439,VALID,0,VALID,24.7743,VALID,350,VALID,0.535156,
2008-11-23, 03:11:04,VALID,1001.29,VALID,0,VALID,94.6591,VALID,0,VALID,24.7743,VALID,350,VALID,0.287891,
2008-11-23, 03:12:04,VALID,1001.3,VALID,0,VALID,94.7278,VALID,0,VALID,24.7743,VALID,350,VALID,0,
2008-11-23, 03:13:04,VALID,1001.33,VALID,0,VALID,94.7507,VALID,0,VALID,24.7956,VALID,350,VALID,0,
2008-11-23, 03:14:04,VALID,1001.32,VALID,0,VALID,94.7507,VALID,0,VALID,24.7937,VALID,350,VALID,0,
2008-11-23, 03:15:04,VALID,1001.31,VALID,0,VALID,94.766,VALID,0,VALID,24.8346,VALID,350,VALID,0,
2008-11-23, 03:16:04,VALID,1001.33,VALID,0,VALID,94.7431,VALID,0,VALID,24.8132,VALID,350,VALID,0,
2008-11-23, 03:17:04,VALID,1001.36,VALID,0,VALID,94.7125,VALID,0,VALID,24.7937,VALID,350,VALID,0,
2008-11-23, 03:18:04,VALID,1001.32,VALID,0,VALID,94.6973,VALID,0,VALID,24.7937,VALID,350,VALID,0,
2008-11-23, 03:19:04,VALID,1001.35,VALID,0,VALID,94.6973,VALID,0,VALID,24.8151,VALID,355,VALID,0,
2008-11-23, 03:20:04,VALID,1001.34,VALID,0,VALID,94.6591,VALID,0,VALID,24.7937,VALID,355,VALID,0,
2008-11-23, 03:21:04,VALID,1001.33,VALID,0,VALID,94.6744,VALID,0,VALID,24.7548,VALID,355,VALID,0,
2008-11-23, 03:22:04,VALID,1001.3,VALID,0,VALID,94.7125,VALID,0,VALID,24.7353,VALID,355,VALID,0,
2008-11-23, 03:23:04,VALID,1001.3,VALID,0,VALID,94.6744,VALID,0,VALID,24.7567,VALID,355,VALID,0,
2008-11-23, 03:24:04,VALID,1001.3,VALID,0,VALID,94.7278,VALID,0,VALID,24.7353,VALID,355,VALID,0,
2008-11-23, 03:25:04,VALID,1001.29,VALID,0,VALID,94.7507,VALID,0,VALID,24.7567,VALID,355,VALID,0,
2008-11-23, 03:26:04,VALID,1001.31,VALID,0,VALID,94.7736,VALID,0,VALID,24.7353,VALID,355,VALID,0,
2008-11-23, 03:27:04,VALID,1001.31,VALID,0,VALID,94.7965,VALID,0,VALID,24.7353,VALID,355,VALID,0,
2008-11-23, 03:28:04,VALID,1001.29,VALID,0,VALID,94.7965,VALID,0,VALID,24.7353,VALID,355,VALID,0,
2008-11-23, 03:29:04,VALID,1001.33,VALID,0,VALID,94.7965,VALID,0,VALID,24.7567,VALID,355,VALID,0,
2008-11-23, 03:30:04,VALID,1001.31,VALID,0,VALID,94.7736,VALID,0,VALID,24.7159,VALID,355,VALID,0,
2008-11-23, 03:31:04,VALID,1001.3,VALID,0,VALID,94.8041,VALID,0,VALID,24.7159,VALID,355,VALID,0,
2008-11-23, 03:32:04,VALID,1001.31,VALID,0,VALID,94.8041,VALID,0,VALID,24.7159,VALID,355,VALID,0,
2008-11-23, 03:33:04,VALID,1001.32,VALID,0,VALID,94.8194,VALID,0,VALID,24.7567,VALID,355,VALID,0,
2008-11-23, 03:34:04,VALID,1001.29,VALID,0,VALID,94.8117,VALID,0,VALID,24.7159,VALID,355,VALID,0,
2008-11-23, 03:35:04,VALID,1001.33,VALID,0,VALID,94.827,VALID,0,VALID,24.7159,VALID,355,VALID,0,
2008-11-23, 03:36:04,VALID,1001.33,VALID,0,VALID,94.8117,VALID,0,VALID,24.7159,VALID,355,VALID,0,
2008-11-23, 03:37:04,VALID,1001.32,VALID,0,VALID,94.8194,VALID,0,VALID,24.7177,VALID,355,VALID,0,
2008-11-23, 03:38:04,VALID,1001.32,VALID,0,VALID,94.8422,VALID,0,VALID,24.6769,VALID,355,VALID,0,
2008-11-23, 03:39:04,VALID,1001.33,VALID,0,VALID,94.888,VALID,0,VALID,24.6769,VALID,355,VALID,0,
2008-11-23, 03:40:04,VALID,1001.35,VALID,0,VALID,94.8956,VALID,0,VALID,24.6769,VALID,355,VALID,0,
2008-11-23, 03:41:04,VALID,1001.34,VALID,0,VALID,94.9109,VALID,0,VALID,24.6964,VALID,355,VALID,0,
2008-11-23, 03:42:04,VALID,1001.33,VALID,0,VALID,94.9033,VALID,0,VALID,24.7372,VALID,355,VALID,0,
2008-11-23, 03:43:04,VALID,1001.36,VALID,0,VALID,94.9414,VALID,0,VALID,24.7159,VALID,355,VALID,0,
2008-11-23, 03:44:04,VALID,1001.35,VALID,0,VALID,94.949,VALID,0,VALID,24.7353,VALID,355,VALID,0,
2008-11-23, 03:45:04,VALID,1001.34,VALID,0,VALID,94.9796,VALID,0,VALID,24.7548,VALID,355,VALID,0,
2008-11-23, 03:46:04,VALID,1001.32,VALID,0,VALID,94.9872,VALID,0,VALID,24.7761,VALID,355,VALID,0,
2008-11-23, 03:47:04,VALID,1001.33,VALID,0,VALID,95.0024,VALID,0,VALID,24.7743,VALID,355,VALID,0,
2008-11-23, 03:48:04,VALID,1001.33,VALID,0,VALID,95.0177,VALID,0,VALID,24.7743,VALID,355,VALID,0,
2008-11-23, 03:49:04,VALID,1001.36,VALID,0,VALID,95.0101,VALID,0,VALID,24.7937,VALID,355,VALID,0,
2008-11-23, 03:50:04,VALID,1001.34,VALID,0,VALID,94.9948,VALID,0,VALID,24.7956,VALID,355,VALID,0,
2008-11-23, 03:51:04,VALID,1001.37,VALID,0,VALID,94.9719,VALID,0,VALID,24.7956,VALID,355,VALID,0.204297,
2008-11-23, 03:52:04,VALID,1001.37,VALID,0,VALID,94.9719,VALID,0,VALID,24.7937,VALID,356,VALID,0,
2008-11-23, 03:53:04,VALID,1001.38,VALID,0,VALID,95.0177,VALID,0,VALID,24.8151,VALID,356,VALID,0,
2008-11-23, 03:54:04,VALID,1001.39,VALID,0,VALID,95.0482,VALID,0,VALID,24.7937,VALID,356,VALID,0,
2008-11-23, 03:55:04,VALID,1001.43,VALID,0,VALID,95.0406,VALID,0,VALID,24.7937,VALID,356,VALID,0,